Thunderstorms From: 25-05-2018 23:09 Until: 26-05-2018 15:00 warning for: Thunderstorms Level: Yellow info button

Although rather usual in this region, locally or potentially dangerous phenomena are expected. (such as local winds, summer thunderstorms, rising streams or high waves) Be aware and pay attention to the latest weather updates, especially if you carry out activities exposed to weather or close to a stream or shoreline. 


Meteo18 Weather Cam more information Meteo18 Weather Cam


warning for Thunderstorms more information blitzortung!


Rain radar more information rain snow radar


Visit our other weather sites:

Template documentation
and downloads

And another site



Weather Underground History page Text

Daily Summary for October 8, 2017 Units:  Metric    English   Both
« Previous Day
Next Day »
Daily Weekly Monthly Yearly Custom
  High: Low: Average:
Temperature: -17.8 °C -12.3 °C -10.8 °C
Dew Point: -17.8 °C -13.1 °C -11.6 °C
Humidity: Humidity % 81 % 91 %
Wind Speed: 0 km/h 0 km/h 5.1 km/h
Wind Gust: 0 km/h - -
Wind:- - WSW
Pressure: 0 hPa 34554.1 hPa -
Precipitation: 129.54 mm    
Historical Graphs
 
 
Tabular Data for October 8, 2017
Time Temperature Dew Point Pressure Wind Wind Speed Wind Gust Humidity Rainfall Rate (Hourly)
-17.8 °C -17.8 °C 0 hPa Calm     Humidity % 0 mm
00:02 -11.4 °C -13.1 °C 34611.7 hPa WNW 5.1 km/h 12.9 km/h 81 % 20.32 mm
00:12 -11.5 °C -13.1 °C 34601.5 hPa Calm   12.9 km/h 83 % 33.02 mm
00:17 -11.6 °C -13 °C 34601.5 hPa SW 2.6 km/h 12.9 km/h 84 % 38.1 mm
00:22 -11.6 °C -12.9 °C 34601.5 hPa WSW 2.6 km/h 7.7 km/h 85 % 38.1 mm
00:32 -11.7 °C -12.9 °C 34611.7 hPa Calm   2.6 km/h 87 % 50.8 mm
00:42 -11.8 °C -12.8 °C 34601.5 hPa Calm     88 % 58.42 mm
00:47 -11.8 °C -12.8 °C 34601.5 hPa Calm   2.6 km/h 88 % 58.42 mm
00:52 -11.8 °C -12.8 °C 34601.5 hPa Calm   2.6 km/h 89 % 45.72 mm
01:02 -11.8 °C -12.7 °C 34601.5 hPa Calm     90 % 38.1 mm
01:07 -11.9 °C -12.8 °C 34601.5 hPa Calm     90 % 38.1 mm
01:12 -11.9 °C -12.7 °C 34601.5 hPa Calm     91 % 33.02 mm
01:17 -11.9 °C -12.7 °C 34591.4 hPa Calm   2.6 km/h 91 % 25.4 mm
01:22 -11.9 °C -12.6 °C 34601.5 hPa SW 2.6 km/h 5.1 km/h 92 % 25.4 mm
01:27 -12 °C -12.7 °C 34591.4 hPa SW 2.6 km/h 5.1 km/h 92 % 20.32 mm
01:32 -12 °C -12.7 °C 34591.4 hPa SW 5.1 km/h 7.7 km/h 92 % 12.7 mm
01:37 -12 °C -12.7 °C 34591.4 hPa SW 2.6 km/h 12.9 km/h 92 % 12.7 mm
01:42 -11.9 °C -12.6 °C 34591.4 hPa WSW 10.3 km/h 12.9 km/h 93 % 12.7 mm
01:47 -11.9 °C -12.6 °C 34591.4 hPa SSW 12.9 km/h 15.6 km/h 93 % 12.7 mm
01:52 -12 °C -12.6 °C 34591.4 hPa WSW 10.3 km/h 18.2 km/h 93 % 12.7 mm
01:57 -12 °C -12.6 °C 34591.4 hPa WSW 18.2 km/h 18.2 km/h 93 % 12.7 mm
02:02 -11.9 °C -12.6 °C 34591.4 hPa SW 5.1 km/h 25.9 km/h 93 % 12.7 mm
02:07 -11.9 °C -12.6 °C 34591.4 hPa WNW 12.9 km/h 25.9 km/h 93 % 12.7 mm
02:12 -11.9 °C -12.6 °C 34591.4 hPa SW 10.3 km/h 25.9 km/h 93 % 20.32 mm
02:17 -12 °C -12.6 °C 34591.4 hPa West 7.7 km/h 25.9 km/h 93 % 25.4 mm
02:22 -12 °C -12.6 °C 34577.8 hPa WSW 7.7 km/h 23.3 km/h 93 % 33.02 mm
02:27 -12.1 °C -12.7 °C 34591.4 hPa WSW 15.6 km/h 23.3 km/h 93 % 33.02 mm
02:32 -12.1 °C -12.7 °C 34577.8 hPa West 7.7 km/h 28.5 km/h 93 % 33.02 mm
02:37 -12.1 °C -12.7 °C 34591.4 hPa WSW 10.3 km/h 28.5 km/h 93 % 33.02 mm
02:42 -12.1 °C -12.8 °C 34591.4 hPa WSW 7.7 km/h 28.5 km/h 92 % 33.02 mm
02:47 -12.1 °C -12.8 °C 34591.4 hPa WSW 5.1 km/h 20.8 km/h 92 % 33.02 mm
02:52 -12.1 °C -12.8 °C 34577.8 hPa SW 10.3 km/h 20.8 km/h 92 % 33.02 mm
02:57 -12.2 °C -12.8 °C 34577.8 hPa West 10.3 km/h 20.8 km/h 92 % 25.4 mm
03:02 -12.2 °C -12.8 °C 34577.8 hPa SSW 2.6 km/h 20.8 km/h 92 % 20.32 mm
03:07 -12.2 °C -12.8 °C 34577.8 hPa SW 7.7 km/h 20.8 km/h 93 % 20.32 mm
03:12 -12.2 °C -12.8 °C 34577.8 hPa Calm   15.6 km/h 93 % 20.32 mm
03:17 -12.3 °C -12.9 °C 34577.8 hPa Calm   12.9 km/h 93 % 12.7 mm
03:22 -12.3 °C -12.9 °C 34577.8 hPa West 7.7 km/h 23.3 km/h 93 % 12.7 mm
03:27 -12.3 °C -12.9 °C 34577.8 hPa WSW 18.2 km/h 23.3 km/h 93 % 12.7 mm
03:32 -12.3 °C -12.9 °C 34577.8 hPa SW 5.1 km/h 25.9 km/h 93 % 12.7 mm
03:37 -12.3 °C -12.9 °C 34567.7 hPa WNW 15.6 km/h 25.9 km/h 93 % 12.7 mm
03:42 -12.3 °C -12.9 °C 34567.7 hPa WSW 23.3 km/h 25.9 km/h 93 % 12.7 mm
03:47 -12.3 °C -12.9 °C 34567.7 hPa WNW 10.3 km/h 31.1 km/h 93 % 20.32 mm
03:52 -12.3 °C -12.8 °C 34567.7 hPa WSW 25.9 km/h 31.1 km/h 94 % 25.4 mm
03:57 -12.3 °C -12.8 °C 34567.7 hPa WSW 18.2 km/h 31.1 km/h 94 % 25.4 mm
04:02 -12.3 °C -12.8 °C 34567.7 hPa WSW 7.7 km/h 25.9 km/h 94 % 38.1 mm
04:07 -12.3 °C -12.8 °C 34567.7 hPa WSW 12.9 km/h 25.9 km/h 94 % 38.1 mm
04:12 -12.3 °C -12.8 °C 34567.7 hPa WSW 5.1 km/h 23.3 km/h 94 % 38.1 mm
04:17 -12.3 °C -12.8 °C 34567.7 hPa SSW 5.1 km/h 23.3 km/h 94 % 38.1 mm
04:22 -12.3 °C -12.8 °C 34567.7 hPa WSW 18.2 km/h 23.3 km/h 94 % 38.1 mm
04:37 -12.3 °C -12.7 °C 34554.1 hPa West 5.1 km/h 23.3 km/h 95 % 38.1 mm
04:42 -12.3 °C -12.7 °C 34567.7 hPa SW 5.1 km/h 20.8 km/h 95 % 38.1 mm
04:47 -12.3 °C -12.7 °C 34567.7 hPa SW 10.3 km/h 20.8 km/h 95 % 38.1 mm
04:52 -12.3 °C -12.7 °C 34567.7 hPa WSW 12.9 km/h 20.8 km/h 95 % 33.02 mm
05:02 -12.2 °C -12.7 °C 34567.7 hPa SW 5.1 km/h 18.2 km/h 95 % 12.7 mm
05:07 -12.2 °C -12.7 °C 34567.7 hPa West 10.3 km/h 15.6 km/h 95 % 12.7 mm
05:12 -12.2 °C -12.7 °C 34567.7 hPa West 5.1 km/h 15.6 km/h 95 % 12.7 mm
05:27 -12.2 °C -12.7 °C 34567.7 hPa WSW 2.6 km/h 18.2 km/h 95 % 7.62 mm
05:37 -12.2 °C -12.6 °C 34567.7 hPa WSW 10.3 km/h 12.9 km/h 96 % 0 mm
05:42 -12.2 °C -12.6 °C 34567.7 hPa SW 10.3 km/h 12.9 km/h 96 % 0 mm
05:47 -12.2 °C -12.6 °C 34567.7 hPa SSW 5.1 km/h 15.6 km/h 96 % 0 mm
05:52 -12.2 °C -12.6 °C 34567.7 hPa West 7.7 km/h 15.6 km/h 96 % 0 mm
06:02 -12.2 °C -12.5 °C 34567.7 hPa Calm   15.6 km/h 96 % 0 mm
06:12 -12.2 °C -12.5 °C 34567.7 hPa Calm   7.7 km/h 96 % 0 mm
06:17 -12.2 °C -12.5 °C 34567.7 hPa Calm   7.7 km/h 96 % 0 mm
06:22 -12.2 °C -12.5 °C 34577.8 hPa SSW 2.6 km/h 7.7 km/h 96 % 0 mm
06:32 -12.2 °C -12.5 °C 34577.8 hPa WSW 2.6 km/h 7.7 km/h 96 % 0 mm
06:37 -12.2 °C -12.5 °C 34577.8 hPa Calm   7.7 km/h 96 % 0 mm
06:42 -12.1 °C -12.4 °C 34577.8 hPa WSW 10.3 km/h 10.3 km/h 96 % 0 mm
06:47 -12.1 °C -12.4 °C 34567.7 hPa WSW 2.6 km/h 7.7 km/h 96 % 0 mm
06:52 -12.1 °C -12.4 °C 34577.8 hPa Calm   10.3 km/h 96 % 0 mm
06:57 -12.1 °C -12.4 °C 34577.8 hPa SW 2.6 km/h 10.3 km/h 96 % 0 mm
07:02 -12.1 °C -12.4 °C 34577.8 hPa WSW 2.6 km/h 10.3 km/h 96 % 0 mm
07:12 -12.1 °C -12.4 °C 34577.8 hPa SW 2.6 km/h 7.7 km/h 96 % 0 mm
07:17 -12.1 °C -12.4 °C 34577.8 hPa West 7.7 km/h 7.7 km/h 96 % 0 mm
07:22 -12.1 °C -12.4 °C 34567.7 hPa WSW 7.7 km/h 10.3 km/h 96 % 0 mm
07:32 -12.1 °C -12.4 °C 34567.7 hPa WSW 10.3 km/h 12.9 km/h 96 % 0 mm
07:37 -12.1 °C -12.4 °C 34567.7 hPa SW 7.7 km/h 15.6 km/h 96 % 0 mm
07:42 -12.1 °C -12.4 °C 34577.8 hPa WSW 2.6 km/h 15.6 km/h 96 % 0 mm
07:47 -12.1 °C -12.4 °C 34577.8 hPa West 7.7 km/h 15.6 km/h 96 % 0 mm
07:52 -12 °C -12.3 °C 34577.8 hPa West 5.1 km/h 15.6 km/h 96 % 0 mm
07:57 -12 °C -12.3 °C 34577.8 hPa West 12.9 km/h 15.6 km/h 96 % 0 mm
08:12 -11.9 °C -12.3 °C 34577.8 hPa West 5.1 km/h 15.6 km/h 96 % 0 mm
08:17 -11.9 °C -12.2 °C 34577.8 hPa SW 2.6 km/h 15.6 km/h 96 % 0 mm
08:22 -11.9 °C -12.2 °C 34577.8 hPa West 2.6 km/h 15.6 km/h 96 % 0 mm
08:32 -11.8 °C -12.2 °C 34577.8 hPa WSW 5.1 km/h 10.3 km/h 96 % 0 mm
08:42 -11.8 °C -12.1 °C 34577.8 hPa WSW 5.1 km/h 15.6 km/h 96 % 0 mm
08:52 -11.7 °C -12.1 °C 34591.4 hPa WSW 7.7 km/h 15.6 km/h 96 % 0 mm
08:57 -11.7 °C -12.1 °C 34591.4 hPa West 7.7 km/h 15.6 km/h 96 % 0 mm
09:02 -11.7 °C -12 °C 34591.4 hPa WSW 5.1 km/h 15.6 km/h 96 % 0 mm
09:12 -11.6 °C -11.9 °C 34591.4 hPa WNW 5.1 km/h 15.6 km/h 96 % 0 mm
09:17 -11.6 °C -11.9 °C 34591.4 hPa Calm   15.6 km/h 96 % 0 mm
09:22 -11.6 °C -11.9 °C 34591.4 hPa Calm   7.7 km/h 96 % 0 mm
09:32 -11.5 °C -11.8 °C 34591.4 hPa Calm   10.3 km/h 96 % 0 mm
09:37 -11.4 °C -11.8 °C 34591.4 hPa NNW 2.6 km/h 12.9 km/h 96 % 0 mm
09:42 -11.4 °C -11.8 °C 34601.5 hPa WNW 10.3 km/h 15.6 km/h 96 % 0 mm
09:52 -11.3 °C -11.6 °C 34601.5 hPa WNW 2.6 km/h 18.2 km/h 96 % 0 mm
10:02 -11.2 °C -11.6 °C 34601.5 hPa West 5.1 km/h 18.2 km/h 96 % 0 mm
10:12 -11.1 °C -11.4 °C 34601.5 hPa West 10.3 km/h 15.6 km/h 96 % 0 mm
10:17 -11 °C -11.3 °C 34601.5 hPa WNW 23.3 km/h 23.3 km/h 96 % 0 mm
10:22 -10.9 °C -11.4 °C 34601.5 hPa West 5.1 km/h 25.9 km/h 95 % 0 mm
10:32 -10.7 °C -11.4 °C 34601.5 hPa West 12.9 km/h 25.9 km/h 92 % 0 mm
10:52 -10.6 °C -11.6 °C 34611.7 hPa West 7.7 km/h 20.8 km/h 89 % 0 mm
11:02 -10.4 °C -11.3 °C 34611.7 hPa WSW 5.1 km/h 20.8 km/h 90 % 0 mm
11:12 -10.4 °C -11.6 °C 34601.5 hPa WNW 10.3 km/h 18.2 km/h 87 % 0 mm
11:17 -10.4 °C -11.4 °C 34611.7 hPa WNW 2.6 km/h 18.2 km/h 88 % 0 mm
11:22 -10.4 °C -11.4 °C 34611.7 hPa NW 15.6 km/h 15.6 km/h 88 % 0 mm
11:27 -10.4 °C -11.4 °C 34611.7 hPa WNW 5.1 km/h 18.2 km/h 88 % 0 mm
11:32 -10.4 °C -11.4 °C 34611.7 hPa Calm   18.2 km/h 88 % 0 mm
11:37 -10.4 °C -11.5 °C 34611.7 hPa Calm   18.2 km/h 88 % 0 mm
11:42 -10.3 °C -11.3 °C 34611.7 hPa Calm   15.6 km/h 88 % 0 mm
11:52 -10.1 °C -11.4 °C 34611.7 hPa WNW 7.7 km/h 23.3 km/h 86 % 0 mm
11:57 -10.1 °C -11.4 °C 34611.7 hPa NNE 5.1 km/h 23.3 km/h 86 % 0 mm
12:12 -9.9 °C -11.4 °C 34611.7 hPa NNW 2.6 km/h 20.8 km/h 84 % 0 mm
12:17 -9.8 °C -11.4 °C 34611.7 hPa WNW 5.1 km/h 20.8 km/h 83 % 0 mm
12:22 -9.8 °C -11.4 °C 34611.7 hPa North 7.7 km/h 20.8 km/h 82 % 0 mm
12:32 -9.8 °C -11.4 °C 34611.7 hPa Calm   20.8 km/h 83 % 0 mm
12:42 -9.8 °C -11.3 °C 34611.7 hPa WNW 2.6 km/h 15.6 km/h 84 % 0 mm
12:47 -9.8 °C -11.4 °C 34611.7 hPa NW 12.9 km/h 15.6 km/h 83 % 0 mm
12:57 -9.8 °C -11.4 °C 34611.7 hPa WNW 5.1 km/h 15.6 km/h 83 % 0 mm
13:02 -9.8 °C -11.4 °C 34611.7 hPa WNW 7.7 km/h 15.6 km/h 83 % 0 mm
13:07 -9.8 °C -11.4 °C 34611.7 hPa NW 5.1 km/h 15.6 km/h 83 % 0 mm
13:12 -9.8 °C -11.4 °C 34611.7 hPa WNW 7.7 km/h 15.6 km/h 83 % 0 mm
13:17 -9.8 °C -11.4 °C 34611.7 hPa WNW 15.6 km/h 15.6 km/h 83 % 0 mm
13:22 -9.8 °C -11.3 °C 34611.7 hPa WSW 5.1 km/h 15.6 km/h 84 % 0 mm
13:32 -9.6 °C -10.8 °C 34611.7 hPa SSW 5.1 km/h 15.6 km/h 86 % 0 mm
13:37 -9.7 °C -10.8 °C 34611.7 hPa SSW 18.2 km/h 20.8 km/h 87 % 0 mm
13:42 -9.8 °C -10.9 °C 34611.7 hPa WSW 15.6 km/h 23.3 km/h 88 % 0 mm
13:47 -9.8 °C -10.7 °C 34611.7 hPa SW 12.9 km/h 23.3 km/h 90 % 0 mm
13:52 -9.9 °C -10.9 °C 34611.7 hPa SW 5.1 km/h 20.8 km/h 89 % 0 mm
13:57 -9.9 °C -10.8 °C 34611.7 hPa WSW 12.9 km/h 20.8 km/h 90 % 0 mm
14:02 -9.8 °C -10.7 °C 34611.7 hPa SSW 10.3 km/h 20.8 km/h 90 % 0 mm
14:07 -9.7 °C -10.7 °C 34611.7 hPa SW 12.9 km/h 20.8 km/h 89 % 0 mm
14:17 -9.4 °C -10.5 °C 34601.5 hPa SW 15.6 km/h 20.8 km/h 88 % 0 mm
14:22 -9.5 °C -10.7 °C 34601.5 hPa West 15.6 km/h 23.3 km/h 87 % 0 mm
14:27 -9.5 °C -10.6 °C 34601.5 hPa WSW 5.1 km/h 23.3 km/h 88 % 0 mm
14:32 -9.5 °C -10.6 °C 34601.5 hPa WSW 5.1 km/h 23.3 km/h 88 % 0 mm
14:37 -9.6 °C -10.7 °C 34601.5 hPa SW 7.7 km/h 23.3 km/h 87 % 0 mm
14:42 -9.6 °C -10.7 °C 34591.4 hPa SW 5.1 km/h 15.6 km/h 87 % 0 mm
14:47 -9.5 °C -10.7 °C 34591.4 hPa WSW 10.3 km/h 18.2 km/h 87 % 0 mm
14:52 -9.5 °C -10.9 °C 34591.4 hPa SW 12.9 km/h 18.2 km/h 85 % 0 mm
14:57 -9.5 °C -10.8 °C 34591.4 hPa SW 12.9 km/h 18.2 km/h 86 % 0 mm
15:02 -9.5 °C -10.7 °C 34591.4 hPa SSW 12.9 km/h 20.8 km/h 87 % 0 mm
15:07 -9.4 °C -10.7 °C 34591.4 hPa SW 10.3 km/h 20.8 km/h 86 % 0 mm
15:12 -9.4 °C -10.6 °C 34591.4 hPa SW 10.3 km/h 23.3 km/h 87 % 0 mm
15:17 -9.5 °C -10.7 °C 34591.4 hPa West 12.9 km/h 23.3 km/h 87 % 0 mm
15:22 -9.6 °C -10.7 °C 34591.4 hPa SSW 18.2 km/h 23.3 km/h 87 % 0 mm
15:27 -9.6 °C -10.7 °C 34591.4 hPa WSW 10.3 km/h 20.8 km/h 87 % 0 mm
15:32 -9.5 °C -10.7 °C 34591.4 hPa SW 12.9 km/h 20.8 km/h 87 % 0 mm
15:37 -9.3 °C -10.4 °C 34591.4 hPa WSW 15.6 km/h 20.8 km/h 88 % 0 mm
15:42 -9.3 °C -10.6 °C 34591.4 hPa SW 12.9 km/h 25.9 km/h 86 % 0 mm
15:47 -9.4 °C -10.7 °C 34591.4 hPa WSW 12.9 km/h 25.9 km/h 86 % 0 mm
15:52 -9.4 °C -10.7 °C 34591.4 hPa SW 12.9 km/h 25.9 km/h 86 % 0 mm
15:57 -9.4 °C -10.6 °C 34591.4 hPa SW 10.3 km/h 23.3 km/h 87 % 0 mm
16:02 -9.4 °C -10.6 °C 34591.4 hPa SW 10.3 km/h 20.8 km/h 87 % 0 mm
16:12 -9.3 °C -10.4 °C 34591.4 hPa SSW 7.7 km/h 25.9 km/h 88 % 0 mm
16:17 -9.3 °C -10.6 °C 34591.4 hPa WSW 10.3 km/h 25.9 km/h 87 % 0 mm
16:22 -9.4 °C -10.6 °C 34591.4 hPa WSW 12.9 km/h 23.3 km/h 87 % 0 mm
16:32 -9.5 °C -10.7 °C 34591.4 hPa SW 5.1 km/h 18.2 km/h 87 % 0 mm
16:37 -9.5 °C -10.7 °C 34591.4 hPa SSW 5.1 km/h 18.2 km/h 87 % 0 mm
16:42 -9.5 °C -10.7 °C 34591.4 hPa SW 2.6 km/h 18.2 km/h 87 % 0 mm
16:47 -9.5 °C -10.6 °C 34591.4 hPa SSW 2.6 km/h 18.2 km/h 88 % 0 mm
16:52 -9.5 °C -10.7 °C 34591.4 hPa Calm   10.3 km/h 87 % 0 mm
16:57 -9.5 °C -10.7 °C 34591.4 hPa Calm   5.1 km/h 87 % 0 mm
17:02 -9.5 °C -10.7 °C 34591.4 hPa Calm   5.1 km/h 87 % 0 mm
17:12 -9.4 °C -10.6 °C 34591.4 hPa WSW 5.1 km/h 5.1 km/h 87 % 0 mm
17:17 -9.4 °C -10.6 °C 34591.4 hPa Calm   5.1 km/h 88 % 0 mm
17:22 -9.4 °C -10.6 °C 34591.4 hPa West 2.6 km/h 7.7 km/h 87 % 0 mm
17:32 -9.5 °C -10.6 °C 34591.4 hPa Calm   10.3 km/h 88 % 0 mm
17:37 -9.5 °C -10.6 °C 34591.4 hPa SW 2.6 km/h 10.3 km/h 88 % 0 mm
17:42 -9.5 °C -10.7 °C 34591.4 hPa WSW 5.1 km/h 10.3 km/h 87 % 0 mm
17:47 -9.5 °C -10.7 °C 34591.4 hPa SSW 2.6 km/h 10.3 km/h 87 % 0 mm
17:52 -9.5 °C -10.7 °C 34591.4 hPa WSW 2.6 km/h 10.3 km/h 87 % 0 mm
17:57 -9.5 °C -10.7 °C 34591.4 hPa Calm   5.1 km/h 87 % 0 mm
18:02 -9.5 °C -10.7 °C 34591.4 hPa Calm   5.1 km/h 87 % 0 mm
18:07 -9.5 °C -10.7 °C 34591.4 hPa Calm   5.1 km/h 87 % 0 mm
18:12 -9.5 °C -10.7 °C 34591.4 hPa WNW 2.6 km/h 2.6 km/h 87 % 0 mm
18:17 -9.4 °C -10.5 °C 34591.4 hPa Calm   2.6 km/h 88 % 0 mm
18:22 -9.3 °C -10.4 °C 34591.4 hPa WNW 2.6 km/h 2.6 km/h 88 % 0 mm
18:32 -9 °C -10.4 °C 34591.4 hPa NW 5.1 km/h 5.1 km/h 85 % 0 mm
18:47 -9.1 °C -10.4 °C 34591.4 hPa Calm   7.7 km/h 85 % 0 mm
18:52 -9.1 °C -10.4 °C 34591.4 hPa Calm   5.1 km/h 85 % 0 mm
18:57 -9.2 °C -10.6 °C 34591.4 hPa Calm   2.6 km/h 85 % 0 mm
19:02 -9.2 °C -10.5 °C 34601.5 hPa Calm   2.6 km/h 86 % 0 mm
19:07 -9.3 °C -10.5 °C 34601.5 hPa Calm   2.6 km/h 87 % 0 mm
19:12 -9.3 °C -10.6 °C 34601.5 hPa Calm     87 % 0 mm
19:17 -9.4 °C -10.5 °C 34601.5 hPa Calm     88 % 0 mm
19:22 -9.4 °C -10.6 °C 34601.5 hPa Calm     88 % 0 mm
19:27 -9.5 °C -10.6 °C 34601.5 hPa Calm     88 % 0 mm
19:32 -9.5 °C -10.5 °C 34601.5 hPa Calm     89 % 0 mm
19:47 -9.8 °C -10.7 °C 34611.7 hPa Calm     90 % 0 mm
19:52 -9.8 °C -10.7 °C 34611.7 hPa Calm     90 % 0 mm
19:57 -9.8 °C -10.7 °C 34611.7 hPa Calm     90 % 0 mm
20:02 -9.9 °C -10.7 °C 34611.7 hPa Calm     91 % 0 mm
20:07 -9.9 °C -10.7 °C 34611.7 hPa Calm   2.6 km/h 91 % 0 mm
20:12 -10 °C -10.8 °C 34611.7 hPa Calm   2.6 km/h 91 % 0 mm
20:17 -10.1 °C -10.8 °C 34611.7 hPa NNW 2.6 km/h 2.6 km/h 91 % 0 mm
20:22 -10.1 °C -10.8 °C 34611.7 hPa Calm   2.6 km/h 91 % 0 mm
20:27 -10 °C -10.8 °C 34611.7 hPa Calm   2.6 km/h 91 % 0 mm
20:32 -10 °C -10.8 °C 34611.7 hPa Calm   2.6 km/h 91 % 0 mm
20:37 -10 °C -10.8 °C 34611.7 hPa Calm   2.6 km/h 91 % 0 mm
20:42 -10.1 °C -10.8 °C 34611.7 hPa Calm   2.6 km/h 91 % 0 mm
20:52 -10.2 °C -10.9 °C 34625.2 hPa Calm     91 % 0 mm
20:57 -10.2 °C -10.9 °C 34611.7 hPa Calm     91 % 0 mm
21:02 -10.2 °C -10.9 °C 34625.2 hPa Calm     91 % 0 mm
21:12 -10.2 °C -10.9 °C 34625.2 hPa Calm   2.6 km/h 92 % 0 mm
21:17 -10.2 °C -10.9 °C 34625.2 hPa Calm   2.6 km/h 92 % 0 mm
21:22 -10.3 °C -11 °C 34625.2 hPa Calm   2.6 km/h 92 % 0 mm
21:27 -10.3 °C -11 °C 34625.2 hPa NNW 2.6 km/h 5.1 km/h 92 % 0 mm
21:32 -10.3 °C -10.9 °C 34625.2 hPa Calm   5.1 km/h 93 % 0 mm
21:37 -10.3 °C -10.9 °C 34625.2 hPa Calm   5.1 km/h 93 % 0 mm
21:42 -10.3 °C -10.9 °C 34625.2 hPa Calm   2.6 km/h 93 % 0 mm
21:47 -10.4 °C -11 °C 34625.2 hPa Calm   2.6 km/h 93 % 0 mm
21:52 -10.4 °C -11 °C 34625.2 hPa Calm   2.6 km/h 93 % 0 mm
21:57 -10.4 °C -11 °C 34625.2 hPa Calm   2.6 km/h 93 % 0 mm
22:02 -10.4 °C -11.1 °C 34625.2 hPa Calm   2.6 km/h 93 % 0 mm
22:07 -10.4 °C -11.2 °C 34625.2 hPa Calm   2.6 km/h 92 % 0 mm
22:12 -10.5 °C -11.2 °C 34625.2 hPa Calm   2.6 km/h 92 % 0 mm
22:17 -10.5 °C -11.1 °C 34625.2 hPa Calm   2.6 km/h 93 % 0 mm
22:27 -10.6 °C -11.2 °C 34625.2 hPa Calm     93 % 0 mm
22:32 -10.6 °C -11.2 °C 34635.4 hPa Calm     93 % 0 mm
22:37 -10.7 °C -11.3 °C 34635.4 hPa Calm     93 % 0 mm
22:42 -10.7 °C -11.3 °C 34625.2 hPa Calm     93 % 0 mm
22:47 -10.7 °C -11.3 °C 34635.4 hPa Calm     93 % 0 mm
22:52 -10.8 °C -11.4 °C 34635.4 hPa Calm     93 % 0 mm
23:02 -10.9 °C -11.5 °C 34625.2 hPa Calm     93 % 0 mm
23:07 -10.9 °C -11.4 °C 34625.2 hPa Calm     94 % 0 mm
23:12 -11.1 °C -11.6 °C 34625.2 hPa Calm     94 % 0 mm
23:17 -11.2 °C -11.7 °C 34625.2 hPa Calm     94 % 0 mm
23:22 -11.2 °C -11.7 °C 34635.4 hPa Calm     94 % 0 mm
23:27 -11.2 °C -11.7 °C 34635.4 hPa Calm     95 % 0 mm
23:32 -11.2 °C -11.7 °C 34635.4 hPa Calm   2.6 km/h 95 % 0 mm
23:37 -11.2 °C -11.7 °C 34635.4 hPa Calm   2.6 km/h 95 % 0 mm
23:42 -11.3 °C -11.7 °C 34635.4 hPa Calm   5.1 km/h 95 % 0 mm
23:52 -11.3 °C -11.7 °C 34635.4 hPa Calm   5.1 km/h 95 % 0 mm
23:57 -11.3 °C -11.8 °C 34635.4 hPa Calm   5.1 km/h 95 % 0 mm
Meteo18
Compliments of Weather Underground - 4 mb

Script developed by  Jim McMurry - jmcmurry@mwt.net Adapted for the template by  Wim van der Kuil - Leuven-Template.eu

You find our weather info also at:

European Weather Network

Weather Underground

Equipment we use:

Weather-station
Davis Vue

Weather-program
Meteobridge

Weather-server
Raspberry PI 2 B+

Provider
1 and 1

Davis Vue

Meteobridge

Raspberry PI 2 B+

1 and 1